Location: ?????????
(54.7630°N, 39.4991°E)
Time: 05:39:34
(UTC+00:00)

Cosmos 2322 Rocket - Pass Details

Date: 14 April 2026
Orbit: 832 x 849 km, 71.0° (Epoch: 10 May)

Event Time Altitude Azimuth Distance (km) Brightness Sun altitude
Rises 18:02:36 0° 247° (WSW) 3,375 5.7 -13.3°
Reaches altitude 10° 18:05:16 10° 257° (WSW) 2,444 5.1 -13.6°
Maximum altitude 18:10:19 34° 321° (NW) 1,362 4.0 -14.1°
Drops below altitude 10° 18:15:24 10° 26° (NNE) 2,456 4.8 -14.7°
Sets 18:18:06 0° 35° (NE) 3,395 5.4 -15.0°
